This demonstration page uses our WeatherBlox Daily Observations layout. Learn more.

Left ArrowRight Arrow

Hourly Observations for July 18, 2018

Temp ( °F °C ) Dew Point ( °F °C ) Humidity (%) Winds ( mph kmh ) Pressure ( in mb ) Visibility ( mi km ) Precip ( " mm )
12:53 am 00:53 Clear 82 27.8 54 12.2 38 38 SE 7 11 29.90 1013 10 16 0.00 0.00
1:53 am 01:53 Clear 80 26.7 54 12.2 41 41 ESE 5 7 29.91 1013 10 16 0.00 0.00
2:53 am 02:53 Clear 78 25.6 53 11.7 42 42 ESE 6 9 29.91 1013 10 16 0.00 0.00
3:53 am 03:53 Clear 76 24.4 52 11.1 43 43 SE 8 13 29.91 1013 10 16 0.00 0.00
4:53 am 04:53 Clear 75 23.9 52 11.1 45 45 SE 9 15 29.90 1012 10 16 0.00 0.00
5:53 am 05:53 Clear 76 24.4 52 11.1 43 43 SE 9 15 29.90 1013 10 16 0.00 0.00
6:53 am 06:53 Clear 75 23.9 52 11.1 45 45 SE 10 17 29.91 1013 10 16 0.00 0.00
7:53 am 07:53 Sunny 75 23.9 53 11.7 46 46 SE 7 11 29.92 1013 10 16 0.00 0.00
8:53 am 08:53 Sunny 79 26.1 54 12.2 42 42 SE 7 11 29.93 1014 10 16 0.00 0.00
9:53 am 09:53 Sunny 84 28.9 56 13.3 38 38 SSE 7 11 29.93 1014 10 16 0.00 0.00
10:53 am 10:53 Sunny 90 32.2 57 13.9 33 33 VRB 7 11 29.92 1013 10 16 0.00 0.00
11:53 am 11:53 Sunny 95 35 57 13.9 28 28 SE 6 9 29.90 1013 10 16 0.00 0.00
12:53 pm 12:53 Sunny 98 36.7 56 13.3 24 24 VRB 3 6 29.88 1012 10 16 0.00 0.00
1:53 pm 13:53 Sunny 99 37.2 54 12.2 22 22 VRB 3 6 29.85 1011 10 16 0.00 0.00
2:53 pm 14:53 Partly Cloudy 99 37.2 54 12.2 22 22 Calm 29.83 1010 10 16 0.00 0.00
3:53 pm 15:53 Mostly Sunny 103 39.4 52 11.1 18 18 VRB 3 6 29.81 1010 10 16 0.00 0.00
4:53 pm 16:53 Mostly Sunny 102 38.9 52 11.1 19 19 SSE 12 19 29.78 1009 10 16 0.00 0.00
5:53 pm 17:53 Sunny 103 39.4 52 11.1 18 18 ENE 6 9 29.77 1008 10 16 0.00 0.00
6:53 pm 18:53 Sunny 102 38.9 51 10.6 18 18 SSE 8 13 29.74 1007 10 16 0.00 0.00
7:53 pm 19:53 Sunny 100 37.8 52 11.1 20 20 SSE 8 13 29.75 1007 10 16 0.00 0.00
8:53 pm 20:53 Sunny 95 35 51 10.6 23 23 S 8 13 29.75 1008 10 16 0.00 0.00
9:53 pm 21:53 Clear 89 31.7 52 11.1 28 28 SSE 8 13 29.75 1008 10 16 0.00 0.00
10:53 pm 22:53 Clear 88 31.1 51 10.6 28 28 SE 8 13 29.77 1008 10 16 0.00 0.00
11:53 pm 23:53 Clear 85 29.4 51 10.6 31 31 SSE 9 15 29.78 1009 10 16 0.00 0.00

Powered by AerisWeather